Regional Weather Roundup
Issued by NWS Goodland, KS

Home | Current Version | Previous Version | Graphics & Text | Print | Product List | Glossary On
Versions: 1 2 3 4 5 6 7 8 9 10 11 12 13 14 15 16 17 18 19 20 21 22 23 24 25 26 27 28 29 30 31 32 33 34 35 36 37 38 39 40 41 42 43 44 45 46 47 48 49 50
120
ASUS43 KGLD 231208
RWRGLD

GOODLAND FORECAST AREA HOURLY WEATHER ROUNDUP
NATIONAL WEATHER SERVICE GOODLAND KS
600 AM MDT THU MAR 23 2017

...OFFICIAL OBSERVATIONS...

CITY           SKY/WX    TMP DP  RH WIND       PRES   REMARKS
GOODLAND KS    CLEAR     44  43  96 S21       29.72F FOG
HILL CITY KS   CLOUDY    51  51 100 SE8       29.82F FOG
IMPERIAL NEB   CLOUDY    42  40  92 SE12      29.71F
MCCOOK NEB     CLOUDY    48  47  96 SE10      29.77F FOG
AKRON CO       CLOUDY    46  41  82 W12       29.68R
BURLINGTON CO  CLEAR     48  46  93 S18       29.73F
LIMON CO       FOG       38  38 100 CALM      29.76S VSB<1/4
$$

...UNOFFICIAL OBSERVATIONS...

CITY           SKY/WX    TMP DP  RH WIND       PRES   REMARKS
LENORA KS        N/A     49  32  52 SE10        N/A
NORTON KS      CLOUDY    48  43  81 SE14      29.78F HAZE
SHARON SPRINGS   N/A     45  43  93 SE12G18     N/A
TRENTON NEB      N/A     45  32  60 S9          N/A
YUMA CO        FAIR      48  45  87 S16       29.67S
$$




USA.gov is the U.S. government's official web portal to all federal, state and local government web resources and services.